IQ5QD-13 Weather Reports


time (UTC)temp
F
wind
direction
speed
knots
gust
knots
rain 1hr
in
rain 24hr
in
rain mn
in
humidity
%
barometer
mb
20260508023608 50 324 0.9 1.7 0.00 0.05 0.00 91 1007.7
20260508022528 49 77 0.9 1.7 0.00 0.05 0.00 92 1007.7
20260508021549 48 82 0.0 0.9 0.00 0.05 0.00 92 1007.8
20260508020616 48 47 0.0 0.9 0.00 0.05 0.00 92 1007.9
20260508015534 48 51 0.0 1.7 0.00 0.05 0.00 92 1007.9
20260508014600 48 0.0 0.0 0.00 0.05 0.00 91 1007.9
20260508013538 48 0.0 0.0 0.00 0.05 0.00 92 1008.0
20260508012600 48 32 0.9 2.6 0.00 0.06 0.00 92 1008.3
20260508011520 48 0.0 0.0 0.00 0.06 0.00 92 1008.2
20260508010603 48 56 0.0 0.9 0.00 0.06 0.00 92 1008.3
20260508005608 47 50 0.0 0.9 0.00 0.06 0.00 92 1008.4
20260508004536 48 111 0.9 1.7 0.00 0.06 0.00 92 1008.6
20260508003608 48 0.0 0.0 0.00 0.06 0.00 92 1008.7
20260508002556 47 109 0.0 0.9 0.00 0.06 0.00 92 1008.8
20260508001608 47 0.0 0.0 0.00 0.06 0.00 91 1009.0
20260508000546 47 0.0 0.0 0.00 0.06 0.00 91 1009.0
20260507235549 48 0.0 0.0 0.00 0.06 0.00 91 1009.0
20260507234616 48 0.0 0.0 0.00 0.07 0.00 91 1009.1
20260507233614 48 0.0 0.0 0.00 0.07 0.00 91 1009.1
20260507232544 49 87 0.0 0.9 0.00 0.07 0.00 91 1009.2
20260507231608 49 0.0 0.0 0.00 0.07 0.00 91 1009.3
20260507230536 49 0.0 0.0 0.00 0.07 0.00 91 1009.3
20260507225608 49 0.0 0.0 0.00 0.07 0.00 91 1009.3
20260507224555 49 0.0 0.0 0.00 0.07 0.00 91 1009.3
20260507223608 50 0.0 0.0 0.00 0.07 0.00 90 1009.4
20260507222535 50 116 0.9 0.9 0.00 0.08 0.00 90 1009.4
20260507221608 51 0.0 0.0 0.00 0.08 0.00 90 1009.3
20260507220535 51 113 0.9 1.7 0.00 0.08 0.00 90 1009.3
20260507215608 51 0.0 0.0 0.00 0.08 0.08 90 1009.2
20260507214555 51 117 0.9 1.7 0.00 0.08 0.08 90 1009.1
20260507213608 51 64 0.0 0.9 0.00 0.08 0.08 90 1008.9
20260507212529 52 120 0.0 0.9 0.00 0.09 0.08 90 1009.0
20260507211632 52 113 0.0 0.9 0.00 0.09 0.08 90 1009.0
20260507210617 52 129 0.9 1.7 0.00 0.09 0.08 89 1009.2
20260507205537 52 124 0.0 1.7 0.00 0.09 0.08 89 1009.1
20260507204636 53 131 0.9 0.9 0.00 0.09 0.08 89 1009.2
20260507203537 53 0.0 0.0 0.00 0.09 0.08 88 1009.1
20260507202617 53 107 0.0 0.9 0.00 0.10 0.08 88 1008.9
20260507201542 54 0.0 0.0 0.00 0.10 0.08 87 1008.9
20260507200528 54 0.0 0.0 0.00 0.10 0.08 86 1009.0
20260507195613 54 0.0 0.0 0.00 0.10 0.08 86 1009.0
20260507194637 55 94 0.9 1.7 0.00 0.10 0.08 86 1009.0
20260507193537 56 111 0.9 1.7 0.00 0.11 0.08 85 1009.1
20260507192617 56 106 0.9 1.7 0.00 0.11 0.08 84 1008.9
20260507191536 58 134 0.9 1.7 0.00 0.11 0.08 82 1008.9
20260507190601 60 236 0.0 0.9 0.00 0.11 0.08 76 1008.8
20260507185520 61 317 0.0 0.9 0.00 0.12 0.08 72 1008.8
20260507184544 62 308 0.0 0.9 0.00 0.12 0.08 70 1008.8
20260507183521 62 302 0.0 0.9 0.00 0.12 0.08 69 1008.6
20260507182544 63 320 1.7 2.6 0.00 0.12 0.08 66 1008.5
20260507181521 64 337 0.9 1.7 0.00 0.13 0.08 66 1008.6
20260507180536 65 299 0.9 1.7 0.00 0.13 0.08 63 1008.5
20260507175612 66 299 1.7 3.5 0.00 0.13 0.08 62 1008.5
20260507174548 67 286 1.7 3.5 0.00 0.13 0.08 62 1008.4
20260507173552 67 270 0.9 2.6 0.00 0.14 0.08 60 1008.4
20260507172640 67 256 1.7 2.6 0.00 0.14 0.08 60 1008.2
20260507171617 69 278 1.7 5.2 0.00 0.14 0.08 58 1008.1
20260507170636 70 214 0.0 0.9 0.00 0.14 0.08 53 1008.2
20260507165533 72 0.0 0.0 0.00 0.15 0.08 45 1008.3
20260507164620 72 230 1.7 2.6 0.00 0.15 0.08 45 1008.3
20260507163537 71 171 1.7 5.2 0.00 0.15 0.08 46 1008.4
20260507162618 72 192 1.7 5.2 0.00 0.16 0.08 45 1008.2
20260507161544 73 245 1.7 3.5 0.00 0.16 0.08 45 1008.4
20260507160621 73 245 1.7 2.6 0.00 0.16 0.08 45 1008.4
20260507155537 72 247 1.7 5.2 0.00 0.17 0.08 45 1008.3
20260507154617 72 244 1.7 3.5 0.00 0.17 0.08 46 1008.2
20260507153537 72 175 2.6 5.2 0.00 0.17 0.08 44 1008.3
20260507152601 73 170 1.7 3.5 0.00 0.18 0.08 45 1008.2
20260507151534 72 194 2.6 5.2 0.00 0.18 0.08 46 1008.3
20260507150601 72 229 2.6 6.1 0.00 0.19 0.08 46 1008.4
20260507145533 73 239 1.7 5.2 0.00 0.19 0.08 48 1008.5
20260507144601 72 234 1.7 5.2 0.00 0.20 0.08 47 1008.5
20260507143521 72 246 2.6 7.8 0.00 0.20 0.08 47 1008.5
20260507142604 72 225 3.5 7.0 0.00 0.21 0.08 48 1008.6
20260507141608 72 218 3.5 8.7 0.00 0.21 0.08 49 1008.8
20260507140539 72 181 4.3 7.8 0.00 0.22 0.08 48 1008.8
20260507135609 72 159 7.0 13.0 0.00 0.22 0.08 47 1008.9
20260507134529 72 166 4.3 9.6 0.00 0.23 0.08 47 1008.9
20260507133553 72 175 2.6 7.8 0.00 0.23 0.08 47 1009.0
20260507132530 72 167 6.1 9.6 0.00 0.24 0.08 45 1009.0
20260507131553 72 156 4.3 8.7 0.00 0.24 0.08 48 1009.0
20260507130637 73 152 4.3 12.2 0.00 0.24 0.08 48 1009.1
20260507125537 72 171 3.5 7.8 0.00 0.25 0.08 47 1009.0
20260507124600 72 160 5.2 8.7 0.00 0.25 0.08 47 1009.0
20260507123539 72 225 2.6 5.2 0.00 0.26 0.08 51 1009.1
20260507122616 72 174 3.5 7.8 0.00 0.26 0.08 52 1009.0
20260507121534 73 186 2.6 5.2 0.00 0.26 0.08 52 1009.0
20260507120601 72 250 2.6 2.6 0.00 0.27 0.08 52 1009.2
20260507115613 73 183 3.5 7.0 0.00 0.27 0.08 52 1009.2
20260507114601 74 167 1.7 2.6 0.00 0.28 0.08 53 1009.3
20260507113521 72 132 2.6 6.1 0.00 0.28 0.08 55 1009.4
20260507112545 70 244 0.9 1.7 0.00 0.29 0.08 60 1009.5
20260507111629 72 244 1.7 5.2 0.00 0.30 0.08 58 1009.6
20260507110529 70 121 0.9 1.7 0.01 0.30 0.08 60 1009.7
20260507105553 69 177 0.9 1.7 0.01 0.31 0.08 61 1009.7
20260507104540 70 238 1.7 2.6 0.01 0.31 0.08 60 1009.7
20260507103537 71 184 2.6 5.2 0.01 0.32 0.08 60 1009.8
20260507102617 73 303 0.9 1.7 0.01 0.32 0.08 57 1010.1
20260507101537 67 58 1.7 3.5 0.01 0.33 0.08 62 1010.1
20260507100601 71 142 1.7 3.5 0.00 0.32 0.07 58 1010.2
20260507095533 70 152 1.7 3.5 0.00 0.33 0.07 60 1010.1
20260507094600 70 240 1.7 2.6 0.00 0.33 0.07 60 1010.2
20260507093534 70 212 0.9 5.2 0.00 0.34 0.07 60 1010.0
20260507092600 69 144 0.9 2.6 0.00 0.35 0.07 64 1010.0
20260507091533 68 273 0.9 3.5 0.01 0.35 0.07 65 1010.1
20260507090601 69 144 0.9 3.5 0.01 0.35 0.07 64 1010.1
20260507085521 66 331 1.7 2.6 0.01 0.36 0.07 73 1010.1
20260507084542 66 248 1.7 3.5 0.01 0.36 0.07 73 1010.3
20260507083631 66 301 1.7 3.5 0.01 0.37 0.07 75 1010.2
20260507082602 66 52 0.9 0.9 0.01 0.37 0.07 74 1010.3
20260507081609 65 292 1.7 2.6 0.00 0.37 0.06 74 1010.2
20260507080549 65 90 0.0 0.9 0.00 0.37 0.06 74 1010.3
20260507075613 64 113 0.0 1.7 0.00 0.38 0.06 75 1010.2
20260507074629 62 263 1.7 2.6 0.01 0.38 0.06 78 1010.2
20260507073552 61 128 0.0 1.7 0.01 0.39 0.06 81 1010.2
20260507072617 61 49 0.9 1.7 0.01 0.39 0.06 79 1010.2
20260507071557 59 331 0.9 1.7 0.01 0.39 0.06 83 1010.1
20260507070601 59 132 0.9 1.7 0.01 0.40 0.06 83 1010.1
20260507065521 58 138 0.9 2.6 0.01 0.40 0.06 84 1009.9
20260507064546 57 68 0.9 1.7 0.00 0.40 0.05 85 1009.9
20260507063521 57 72 0.9 2.6 0.00 0.40 0.05 85 1009.9
20260507062545 57 59 0.0 0.9 0.00 0.41 0.05 89 1009.7
20260507061520 55 57 0.0 0.9 0.00 0.41 0.05 91 1009.7
20260507060546 54 255 0.9 1.7 0.01 0.41 0.05 92 1009.7
20260507055609 54 158 0.0 0.9 0.01 0.42 0.05 92 1009.5
20260507054529 54 0.0 0.0 0.01 0.42 0.05 92 1009.5
20260507053553 53 275 0.0 0.9 0.01 0.43 0.05 93 1009.5
20260507052529 53 0.0 0.0 0.01 0.43 0.05 93 1009.3
20260507051544 53 0.0 0.0 0.01 0.44 0.05 93 1009.3
20260507050617 52 0.0 0.0 0.00 0.43 0.04 93 1009.3
20260507045538 51 0.0 0.0 0.00 0.44 0.04 93 1009.2
20260507044617 51 0.0 0.0 0.00 0.44 0.04 93 1009.1
20260507043538 50 0.0 0.0 0.00 0.45 0.04 93 1008.9
20260507042618 50 0.0 0.0 0.00 0.45 0.04 93 1008.9
20260507041558 50 55 0.0 0.9 0.01 0.46 0.04 93 1008.8
20260507040601 50 77 0.0 0.9 0.01 0.46 0.04 93 1008.8
20260507035537 49 81 0.0 0.9 0.01 0.47 0.04 93 1009.0
20260507034622 48 0.0 0.0 0.01 0.47 0.04 93 1008.9
20260507033534 48 109 0.0 1.7 0.01 0.48 0.04 93 1008.8
20260507032604 49 112 0.9 1.7 0.01 0.48 0.04 93 1008.8
20260507031534 48 0.0 0.0 0.00 0.48 0.03 92 1008.7
20260507030601 48 0.0 0.0 0.00 0.48 0.03 92 1008.7
20260507025542 49 0.0 0.0 0.00 0.49 0.03 92 1008.9
20260507024540 49 0.0 0.0 0.00 0.49 0.03 92 1008.9